Location: ???????
(55.7027°N, 37.3832°E)
Time: 21:02:45
(UTC+00:00)

Feng Yun 1-1 Rocket - Pass Details

Date: 14 April 2026
Orbit: 829 x 933 km, 99.0° (Epoch: 16 May)

Event Time Altitude Azimuth Distance (km) Brightness Sun altitude
Rises 17:00:38 0° 154° (SSE) 3,451 6.9 -4.3°
Reaches altitude 10° 17:03:02 10° 152° (SSE) 2,502 6.2 -4.6°
Maximum altitude 17:08:33 74° 69° (ENE) 888 4.3 -5.3°
Drops below altitude 10° 17:13:59 10° 346° (NNW) 2,465 7.3 -6.0°
Sets 17:16:20 0° 344° (NNW) 3,396 8.1 -6.3°
